Simultaneous Nadir Overpasses (SNOs) Predictions

Prediction of SNOs between GOES-15 and TERRA Satellite Orbit:

Table of predicted SNOs for the next 14.0 days since TLE Epoch: 1/7/2012
Index Date Time (GOES-15) GOES-15 Lat,Lon TERRA Lat,Lon Distance(km) Time Diff (sec)
1 01/07/2012 19:18:45 -0.03,-134.73 -0.45,-132.68 232.41 80
2 01/08/2012 07:42:49 0.02,-134.77 -0.66,-137.87 353.15 80
3 01/10/2012 07:30:37 0.02,-134.74 -0.02,-134.91 18.99 80
4 01/12/2012 07:15:45 0.02,-134.72 0.63,-131.95 314.84 80
5 01/12/2012 19:39:40 -0.01,-134.66 0.49,-137.10 277.08 80
6 01/14/2012 19:24:47 -0.01,-134.63 -0.11,-134.14 56.05 80
7 01/16/2012 19:12:34 -0.01,-134.59 -0.72,-131.17 388.39 80
8 01/17/2012 07:36:38 0.01,-134.62 -0.37,-136.36 197.92 80
9 01/19/2012 07:21:45 0.01,-134.57 0.25,-133.40 133.46 80
10 01/19/2012 19:45:40 -0.01,-134.51 0.85,-138.55 459.04 80




NCC Satellite Simultaneous Nadir Overpasses (SNOs) Prediction Service
